Lid_Strength_Index
2 1 1 1 1 0 0 0 0 0 1 1 1 1 1 0 -0 -1 -1 -1 -1 -1 -1 -1 -1 -1 0 0 -0 0 0 1 -0 1 1 1 -0 -0 -0 -1 -1 -1 -1
2 2 1 1 1 1 1 1 0 1 0 0 0 -0 -0 -0 -1 -1 -1 -1 -1 -1 -1 -1 -0 -1 0 -0 -0 0 1 1 -0 2 2 4 2 1 -0 -1 -0 -1 -1
3 2 2 2 1 1 1 1 1 0 -0 -1 -0 0 -0 -0 0 0 -0 -1 -1 -1 -1 -1 -1 -1 -1 -0 -0 -0 1 2 0 0 2 4 5 3 1 0 0 -0 -1
2 2 2 2 2 2 1 1 1 0 -0 -1 -0 -0 1 1 0 -0 -1 -1 -1 -1 -1 -1 -1 -1 -1 -0 -0 -0 0 0 2 1 0 0 1 4 5 1 1 0 0
2 2 3 2 2 1 1 1 1 0 0 -1 -1 1 0 1 -0 -1 0 -0 -1 -1 -1 -1 -1 -1 -1 -1 -1 -0 -0 -0 1 1 1 1 1 1 2 5 3 1 0
3 3 2 2 2 1 1 1 1 1 0 -0 -0 -0 0 1 0 0 1 1 0 -0 -1 -1 -1 -1 -1 -0 -0 -1 -0 -0 -0 0 1 2 2 2 2 3 3 3 1
3 3 3 3 2 2 2 1 1 1 0 0 0 0 0 0 1 1 0 1 1 1 -0 -1 -1 -1 -1 -1 -1 -0 -0 -0 0 0 1 1 1 -0 1 2 3 4 2
4 3 3 3 2 2 2 1 1 1 1 0 0 0 -0 0 0 0 -0 0 1 0 -1 -1 -1 -1 -1 -1 -1 -0 -0 -0 0 0 -0 -0 0 -0 0 1 3 5 3
4 3 3 2 2 2 2 1 1 1 1 0 0 0 0 0 0 -0 -0 0 -0 -0 -1 -1 -1 -1 -1 -1 -1 -0 -0 -0 0 -0 -0 -0 -0 -0 -1 -0 1 3 5
4 3 3 2 2 2 1 1 1 1 0 0 0 0 0 -0 -0 -0 -0 -0 -0 -1 -1 -0 -1 -1 -1 -1 -0 -0 -0 0 0 0 1 0 0 -0 -1 0 0 1 3
4 3 3 2 2 2 1 1 1 1 1 0 0 0 0 0 -0 0 -0 -0 -0 -1 -0 -0 -0 -1 -0 -1 -0 0 0 0 1 0 1 0 -0 0 0 0 0 1 2
4 3 3 2 2 2 2 1 1 1 1 0 0 0 0 -0 0 0 -0 -0 -0 -1 -0 -0 -0 -0 -0 -0 0 1 1 1 1 1 1 1 1 0 0 1 1 1 1
4 3 3 3 2 2 2 1 1 1 0 0 0 0 0 0 0 0 -0 -0 -0 -0 -0 -0 0 0 0 0 0 0 1 1 1 1 1 1 1 1 1 1 1 2 1
4 3 3 3 2 2 2 1 1 1 1 1 1 1 0 0 0 -0 -0 -0 -0 -0 -0 -0 -0 0 0 0 0 0 1 1 1 0 0 0 1 1 1 1 1 1 2
4 4 3 3 2 2 2 1 1 1 0 1 1 1 0 0 0 0 0 -0 -0 -0 -0 -0 -0 -0 0 0 0 1 0 1 1 1 1 1 1 3 1 1 1 1 2
4 4 3 3 3 2 2 1 1 1 1 1 1 1 1 0 0 0 0 0 0 0 -0 0 0 0 0 7 4 1 1 0 1 1 1 0 1 4 5 5 5 1 1
4 3 3 3 2 2 1 1 1 1 1 1 1 1 1 1 1 0 0 1 0 -0 0 0 0 0 0 7 7 6 0 0 1 0 0 1 0 1 1 5 5 5 6
3 3 3 2 2 1 1 1 1 1 1 1 1 1 1 1 1 1 1 0 0 0 1 0 0 0 0 8 8 6 -0 0 0 0 0 0 1 0 0 1 1 1 1
3 2 2 2 2 1 1 1 1 1 1 1 1 1 1 1 1 1 1 0 0 1 1 0 0 0 0 8 8 4 1 0 1 0 0 0 0 8 7 0 1 1 2
2 2 2 2 2 1 1 1 1 1 1 1 1 1 0 1 1 1 1 0 0 0 0 1 0 2 0 9 9 4 1 1 1 0 -0 7 1 9 7 0 1 1 1
2 2 2 2 2 1 1 1 1 1 1 1 0 0 0 0 0 0 0 0 0 0 1 1 0 0 1 1 10 8 0 1 1 1 1 0 10 9 8 6 -0 1 0
2 2 2 2 1 1 1 2 2 1 0 0 1 0 0 0 0 0 0 0 0 1 1 1 1 1 0 4 9 9 6 4 1 1 1 2 11 10 9 6 10 8 4
2 2 2 2 1 1 1 2 1 1 1 1 1 0 0 0 0 1 1 1 1 1 1 2 2 1 1 0 9 9 8 7 1 -0 5 10 10 10 7 11 11 9 0
2 2 2 2 2 1 1 1 1 0 1 1 1 1 1 1 0 1 1 1 1 1 1 2 2 1 1 1 0 0 0 7 2 6 2 4 5 9 4 3 4 -0 -0
2 2 2 2 2 1 1 1 1 0 1 1 1 1 1 1 1 1 1 1 -0 1 1 1 1 1 2 1 2 2 0 0 2 1 0 1 1 1 1 0 -0 -0 -0
2 2 2 2 2 1 1 1 0 0 1 1 1 1 1 1 1 1 1 11 8 7 8 6 3 0 5 8 9 8 9 10 9 1 1 1 1 1 1 1 1 0 1